This demonstration page uses our WeatherBlox Daily Observations layout. Learn more.

Left ArrowRight Arrow

39.01783, -85.05884

Hourly Observations for October 25, 2021

Temp ( °F °C ) Dew Point ( °F °C ) Humidity (%) Winds ( mph kmh ) Pressure ( in mb ) Visibility ( mi km ) Precip ( " mm )
12:52 am 00:52 Mostly Cloudy 66 18.9 54 12.2 65 65 S 14 22 29.79 1009 10 16 N/A
1:52 am 01:52 Mostly Cloudy 65 18.3 52 11.1 63 63 S 15 24 29.76 1008 10 16 N/A
2:52 am 02:52 Clear 64 17.8 51 10.6 63 63 S 17 28 29.74 1007 10 16 N/A
3:52 am 03:52 Mostly Cloudy 63 17.2 49 9.4 60 60 SSW 12 19 29.74 1007 10 16 N/A
4:52 am 04:52 Cloudy 64 17.8 49 9.4 58 58 WSW 8 13 29.81 1010 10 16 N/A
5:52 am 05:52 Cloudy 62 16.7 50 10 65 65 SSW 7 11 29.79 1009 10 16 N/A
6:44 am 06:44 Cloudy with Light Rain 58 14.4 53 11.7 84 84 SSW 8 13 29.80 1009 4 6 0.07 1.78
6:52 am 06:52 Cloudy with Light Rain 58 14.4 53 11.7 84 84 SW 8 13 29.79 1009 5 8 0.10 2.54
7:08 am 07:08 Cloudy with Heavy Rain 58 14.4 54 12.2 87 87 SSE 10 17 29.77 1008 3 4 0.07 1.78
7:14 am 07:14 Cloudy with Rain 57 13.9 54 12.2 90 90 SE 21 33 29.71 1006 3 5 0.11 2.79
7:25 am 07:25 Cloudy with Light Rain 57 13.9 54 12.2 90 90 S 12 19 29.73 1007 8 13 0.13 3.30
7:52 am 07:52 Cloudy 57 13.9 53 11.7 87 87 S 13 20 29.72 1006 10 16 0.13 3.30
8:52 am 08:52 Cloudy 57 13.9 54 12.2 90 90 SW 5 7 29.70 1006 10 16 N/A
9:52 am 09:52 Mostly Cloudy 57 13.9 54 12.2 90 90 S 13 20 29.70 1006 10 16 N/A
10:15 am 10:15 Mostly Cloudy 58 14.4 55 12.8 90 90 S 13 20 29.71 1006 10 16 N/A
10:52 am 10:52 Cloudy 59 15 55 12.8 87 87 SSW 12 19 29.68 1005 10 16 N/A
11:30 am 11:30 Cloudy 60 15.6 55 12.8 84 84 SSW 12 19 29.69 1005 10 16 N/A
11:52 am 11:52 Cloudy 61 16.1 56 13.3 84 84 SSW 12 19 29.67 1005 10 16 N/A
11:56 am 11:56 Cloudy 61 16.1 56 13.3 84 84 S 10 17 29.67 1005 10 16 N/A
12:22 pm 12:22 Mostly Cloudy 63 17.2 56 13.3 78 78 SW 12 19 29.67 1005 10 16 N/A
12:52 pm 12:52 Cloudy 64 17.8 56 13.3 75 75 SSW 10 17 29.65 1004 10 16 N/A
1:08 pm 13:08 Cloudy with Light Rain 62 16.7 55 12.8 78 78 W 24 39 29.67 1005 3 5 0.00 0.00
1:14 pm 13:14 Cloudy with Heavy Rain 58 14.4 54 12.2 87 87 W 17 28 29.68 1005 2 3 0.02 0.51
1:21 pm 13:21 Cloudy with Light Rain 57 13.9 53 11.7 87 87 W 15 24 29.68 1005 6 10 0.04 1.02
1:41 pm 13:41 Cloudy with Light Rain 59 15 54 12.2 83 83 W 14 22 29.66 1005 8 13 0.04 1.02
1:52 pm 13:52 Cloudy 60 15.6 55 12.8 84 84 W 13 20 29.65 1004 8 13 0.04 1.02
2:26 pm 14:26 Cloudy 58 14.4 52 11.1 81 81 W 21 33 29.68 1005 10 16 N/A
2:52 pm 14:52 Cloudy 58 14.4 52 11.1 81 81 W 14 22 29.66 1004 10 16 N/A
3:52 pm 15:52 Cloudy 55 12.8 48 8.9 77 77 W 24 39 29.69 1005 8 13 N/A
4:52 pm 16:52 Cloudy with Drizzle 52 11.1 47 8.3 83 83 W 16 26 29.73 1007 6 10 0.00 0.00
5:52 pm 17:52 Cloudy with Drizzle 52 11.1 47 8.3 83 83 W 13 20 29.74 1007 9 14 0.00 0.00
6:52 pm 18:52 Cloudy 52 11.1 48 8.9 86 86 W 12 19 29.76 1008 10 16 0.00 0.00
7:25 pm 19:25 Cloudy with Drizzle 52 11.1 48 8.9 86 86 W 9 15 29.80 1009 7 11 0.00 0.00
7:47 pm 19:47 Cloudy 52 11 48 9 88 88 W 9 15 29.80 1009 10 16 0.00 0.00
7:52 pm 19:52 Cloudy 52 11.1 48 8.9 86 86 W 9 15 29.78 1009 10 16 0.00 0.00
8:18 pm 20:18 Cloudy with Drizzle 52 11.1 49 9.4 89 89 W 9 15 29.81 1009 7 11 0.00 0.00
8:35 pm 20:35 Cloudy with Drizzle 52 11.1 49 9.4 89 89 W 9 15 29.82 1010 6 10 0.00 0.00
8:52 pm 20:52 Cloudy with Drizzle 52 11.1 49 9.4 89 89 WSW 8 13 29.80 1009 4 6 0.00 0.00
8:59 pm 20:59 Cloudy with Drizzle 52 11.1 49 9.4 89 89 W 7 11 29.83 1010 3 4 0.01 0.25
9:15 pm 21:15 Cloudy with Drizzle 52 11.1 49 9.4 89 89 WNW 17 28 29.84 1010 5 8 0.02 0.51
9:27 pm 21:27 Cloudy 53 11.7 49 9.4 86 86 NW 13 20 29.83 1010 10 16 0.02 0.51
9:52 pm 21:52 Cloudy 52 11.1 47 8.3 83 83 NNW 15 24 29.84 1010 10 16 0.02 0.51
10:52 pm 22:52 Cloudy with Drizzle 51 10.6 47 8.3 86 86 NNW 21 33 29.88 1012 5 8 0.00 0.00
10:56 pm 22:56 Cloudy with Drizzle 51 10.6 46 7.8 83 83 NW 22 35 29.90 1012 6 10 0.00 0.00
11:45 pm 23:45 Cloudy with Drizzle 49 9.4 46 7.8 90 90 NNW 16 26 29.91 1013 3 5 0.00 0.00
11:47 pm 23:47 Cloudy with Drizzle 48 9 46 8 94 94 NNW 15 24 29.91 1013 3 5 0.00 0.00
11:52 pm 23:52 Cloudy with Drizzle 49 9.4 46 7.8 90 90 NNW 15 24 29.89 1012 3 5 0.00 0.00

Powered by AerisWeather